📊 Raw Sensor Data

Showing records 42901 to 42925 of 85,008 total

ID Distance (ft) Battery V Battery A Int Temp (°F) Int Humid (%) Ext Temp (°F) Solar V RSSI SNR Time Stamp
42120 15.1 3.98 -5 72 47 72 0.00 -72 7 05/30/2025 10:30 PM
42119 15.1 3.93 -5 72 48 72 0.00 -73 8 05/30/2025 10:15 PM
42118 15.1 3.93 -5 73 48 73 0.00 -72 8 05/30/2025 10:00 PM
42117 15.1 3.98 -5 74 49 74 0.00 -73 8 05/30/2025 09:45 PM
42116 15.1 3.93 -5 75 50 75 0.00 -73 8 05/30/2025 09:30 PM
42115 15.1 3.98 -5 76 51 76 0.00 -73 7 05/30/2025 09:15 PM
42114 15.1 3.93 -5 78 53 76 0.00 -73 8 05/30/2025 09:00 PM
42113 15.1 3.93 -5 80 55 78 0.00 -73 8 05/30/2025 08:45 PM
42112 15.1 3.98 -9 83 57 80 3.80 -73 7 05/30/2025 08:30 PM
42111 15.2 3.93 -5 87 57 83 4.50 -72 7 05/30/2025 08:15 PM
42110 15.3 4.00 0 92 57 86 4.50 -72 8 05/30/2025 08:00 PM
42109 15.3 4.02 9 101 55 95 4.50 -72 7 05/30/2025 07:30 PM
42108 15.3 4.02 0 104 54 97 4.50 -72 8 05/30/2025 07:15 PM
42107 15.4 4.03 0 107 53 99 4.60 -74 8 05/30/2025 07:00 PM
42106 15.4 4.01 28 110 52 101 4.50 -73 9 05/30/2025 06:45 PM
42105 15.5 3.97 6 114 50 103 5.10 -73 9 05/30/2025 06:15 PM
42104 15.5 3.97 6 115 49 109 5.10 -73 8 05/30/2025 06:00 PM
42103 15.5 3.99 6 115 48 107 5.10 -73 8 05/30/2025 05:45 PM
42102 15.5 3.97 6 115 47 109 5.10 -74 7 05/30/2025 05:30 PM
42101 15.4 3.97 5 113 45 106 5.10 -73 8 05/30/2025 05:00 PM
42100 15.4 3.97 0 110 45 101 5.20 -71 7 05/30/2025 04:45 PM
42099 15.4 3.97 5 109 45 99 5.10 -71 8 05/30/2025 04:30 PM
42098 15.4 3.97 0 108 45 98 5.10 -72 8 05/30/2025 04:15 PM
42097 15.4 3.97 5 109 44 98 5.10 -72 8 05/30/2025 04:00 PM
42096 15.4 4.08 5 109 44 100 5.10 -71 7 05/30/2025 03:45 PM